Regional Weather Roundup
Issued by NWS

Home | Current Version | Previous Version | Text Only | Print | Product List | Glossary Off
Versions: 1 2 3 4 5 6 7 8 9 10 11 12 13 14 15 16 17 18 19 20 21 22 23 24 25 26 27 28 29 30 31 32 33 34 35 36 37 38 39 40 41 42 43 44 45 46 47 48 49 50

000
ASUS45 KSLC 291910
RWRUT

UTAH REGIONAL WEATHER ROUNDUP
NATIONAL WEATHER SERVICE SALT LAKE CITY UT
100 PM MDT FRI MAY 29 2015

UTZ001>011-023>025-292000-

NORTHERN UTAH

CITY           SKY/WX    TMP DP  RH WIND       PRES   REMARKS
BRIGHAM CITY   SUNNY     67  39  35 CALM      30.22S
HILL AFB       SUNNY     68  37  31 NW2       30.22S
LOGAN          SUNNY     65  47  52 N3        30.21F
OGDEN          SUNNY     69  44  40 VRB5      30.20F
PROVO AIRPORT  MOSUNNY   66  43  42 SW5       30.21F
SALT LAKE CITY MOSUNNY   71  42  35 N6        30.19S
VERNAL         PTSUNNY   64  42  44 VRB3      30.26F
WENDOVER       SUNNY     70  43  37 E5        30.19F
HEBER CITY     SUNNY     68  34  28 CALM      30.23F
WEST JORDAN    SUNNY     72  43  35 CALM      30.21F

$$

UTZ012>022-026-027-292000-

SOUTHERN/CENTRAL UTAH

CITY           SKY/WX    TMP DP  RH WIND       PRES   REMARKS
BLANDING       SUNNY     73  29  19 N5        30.29S
BRYCE CANYON   MOSUNNY   65  35  33 S8G17     30.31F
CEDAR CITY     SUNNY     72  41  32 CALM      30.19F
DELTA          MOSUNNY   74  36  25 NE9       30.19F
HANKSVILLE     SUNNY     75  34  22 NE7       30.20F
MILFORD        SUNNY     73  42  32 N9        30.18F
MOAB/CYNLANDS  SUNNY     74  34  23 VRB3      30.17F
PRICE          SUNNY     70  34  26 MISG      30.24F
ST GEORGE      CLEAR     88  41  19 CALM      30.03F

$$

REGIONAL REPORTS     COLORADO/ARIZONA

CITY           SKY/WX    TMP DP  RH WIND       PRES   REMARKS
CRAIG, CO      PTSUNNY   59  42  53 E3        30.30F
GRAND JUNCTION SUNNY     69  37  30 N7        30.21F
RIFLE          SUNNY     67  39  35 W7        30.24F
MONTROSE       MOSUNNY   67  38  34 N9        30.25F
CORTEZ         SUNNY     73  31  21 N10       30.22S
PAGE, AZ       SUNNY     80  38  22 VRB7      30.13F
GRAND CANYON   PTSUNNY   69  35  28 S7        30.27S
KINGMAN        SUNNY     91  20   7 SW13G22   30.04F
FLAGSTAFF      PTSUNNY   69  30  23 SE7       30.28F

$$

REGIONAL REPORTS    NEVADA/IDAHO/WYOMING

CITY           SKY/WX    TMP DP  RH WIND       PRES   REMARKS
LAS VEGAS, NV  MOSUNNY   92  28  10 S9        29.93F
ELY            PTSUNNY   70  38  31 VRB6      30.21F
ELKO           SUNNY     73  36  25 CALM      30.16F
POCATELLO, ID  MOSUNNY   68  44  42 NW6       30.21F
BURLEY         SUNNY     71  44  37 E6        30.15F
EVANSTON, WY   PTSUNNY   57  39  51 VRB3      30.31F
ROCK SPRINGS   PTSUNNY   57  38  48 VRB3      30.32S
KEMMERER       MOSUNNY   57  36  44 SE3       30.34F

$$


USA.gov is the U.S. government's official web portal to all federal, state and local government web resources and services.